Time,TemperatureF,DewpointF,PressureIn,WindDirection,WindDirectionDegrees,WindSpeedMPH,WindSpeedGustMPH,Humidity,HourlyPrecipIn,Conditions,Clouds,dailyrainin,SoftwareType,DateUTC
2013-02-06 00:00:00,1.3,-4.0,30.05,NNW,329,0.0,0.0,78,0.00,,,0.00,VWS V15.00,2013-02-06 06:00:00,
2013-02-06 00:04:00,1.1,-4.1,30.05,NNW,329,0.0,0.0,78,0.00,,BKN120,0.00,VWS V14.01,2013-02-06 06:04:00,
2013-02-06 00:09:00,0.7,-4.5,30.05,NNW,329,0.0,0.0,78,0.00,,BKN120,0.00,VWS V14.01,2013-02-06 06:09:00,
2013-02-06 00:14:00,0.1,-5.8,30.05,NNW,329,0.0,0.0,76,0.00,,BKN120,0.00,VWS V14.01,2013-02-06 06:14:00,
2013-02-06 00:15:00,-0.2,-5.9,30.06,NNW,329,0.0,0.0,76,0.00,,,0.00,VWS V15.00,2013-02-06 06:15:00,
2013-02-06 00:19:00,-0.6,-6.3,30.06,NNW,329,0.0,0.0,76,0.00,,BKN120,0.00,VWS V14.01,2013-02-06 06:19:00,
2013-02-06 00:24:00,-0.8,-6.3,30.06,NNW,329,0.0,0.0,77,0.00,,BKN120,0.00,VWS V14.01,2013-02-06 06:24:00,
2013-02-06 00:29:00,-0.8,-6.0,30.06,NNW,329,0.0,0.0,78,0.00,,BKN120,0.00,VWS V14.01,2013-02-06 06:29:00,
2013-02-06 00:30:00,-0.8,-6.0,30.06,NNW,329,0.0,0.0,78,0.00,,,0.00,VWS V15.00,2013-02-06 06:30:00,
2013-02-06 00:34:00,-0.8,-5.7,30.06,NNW,329,0.0,0.0,79,0.00,,BKN120,0.00,VWS V14.01,2013-02-06 06:34:00,
2013-02-06 00:39:00,-0.2,-4.7,30.06,NNW,329,0.0,0.0,80,0.00,,BKN120,0.00,VWS V14.01,2013-02-06 06:39:00,
2013-02-06 00:44:00,0.3,-4.1,30.06,NNW,329,0.0,0.0,81,0.00,,BKN120,0.00,VWS V14.01,2013-02-06 06:44:00,
2013-02-06 00:45:00,0.3,-4.1,30.06,NNW,329,0.0,0.0,81,0.00,,,0.00,VWS V15.00,2013-02-06 06:45:00,
2013-02-06 00:49:00,0.3,-4.1,30.06,NNW,329,0.0,0.0,81,0.00,,BKN120,0.00,VWS V14.01,2013-02-06 06:49:00,
2013-02-06 00:54:00,0.1,-4.3,30.06,NNW,329,0.0,0.0,81,0.00,,BKN120,0.00,VWS V14.01,2013-02-06 06:54:00,
2013-02-06 00:59:00,-0.2,-4.9,30.06,NNW,329,0.0,0.0,80,0.00,,BKN120,0.00,VWS V14.01,2013-02-06 06:59:00,
2013-02-06 01:00:00,-0.2,-4.9,30.06,NNW,329,0.0,0.0,80,0.00,,,0.00,VWS V15.00,2013-02-06 07:00:00,
2013-02-06 01:04:00,-0.6,-5.3,30.06,NNW,329,0.0,0.0,80,0.00,,SCT120,0.00,VWS V14.01,2013-02-06 07:04:00,
2013-02-06 01:09:00,-1.0,-5.9,30.06,NNW,329,0.0,0.0,79,0.00,,SCT120,0.00,VWS V14.01,2013-02-06 07:09:00,
2013-02-06 01:14:00,-1.4,-6.6,30.07,NNW,329,0.0,0.0,78,0.00,,SCT120,0.00,VWS V14.01,2013-02-06 07:14:00,
2013-02-06 01:15:00,-1.4,-6.6,30.07,NNW,329,0.0,0.0,78,0.00,,,0.00,VWS V15.00,2013-02-06 07:15:00,
2013-02-06 01:19:00,-2.2,-7.6,30.07,NNW,329,0.0,0.0,77,0.00,,SCT120,0.00,VWS V14.01,2013-02-06 07:19:00,
2013-02-06 01:24:00,-2.4,-7.6,30.07,NNW,329,0.0,0.0,78,0.00,,SCT120,0.00,VWS V14.01,2013-02-06 07:24:00,
2013-02-06 01:29:00,-1.6,-6.5,30.07,NNW,329,0.0,0.0,79,0.00,,SCT120,0.00,VWS V14.01,2013-02-06 07:29:00,
2013-02-06 01:30:00,-1.6,-6.5,30.07,NNW,329,0.0,0.0,79,0.00,,,0.00,VWS V15.00,2013-02-06 07:30:00,
2013-02-06 01:35:00,-0.8,-5.2,30.07,NNW,329,0.0,0.0,81,0.00,,SCT120,0.00,VWS V14.01,2013-02-06 07:35:00,
2013-02-06 01:40:00,-0.2,-4.6,30.07,NNW,329,0.0,0.0,81,0.00,,SCT120,0.00,VWS V14.01,2013-02-06 07:40:00,
2013-02-06 01:45:00,-0.2,-4.6,30.07,NNW,329,0.0,0.0,81,0.00,,SCT120,0.00,VWS V14.01,2013-02-06 07:45:00,
2013-02-06 01:50:00,-0.2,-4.9,30.07,NNW,329,0.0,0.0,80,0.00,,SCT120,0.00,VWS V14.01,2013-02-06 07:50:00,
2013-02-06 01:55:00,-0.4,-5.3,30.07,NNW,328,0.0,0.0,79,0.00,,SCT120,0.00,VWS V14.01,2013-02-06 07:55:00,
2013-02-06 02:00:00,-0.4,-5.6,30.07,NNW,328,0.0,0.0,78,0.00,,SCT120,0.00,VWS V14.01,2013-02-06 08:00:00,
2013-02-06 02:05:00,-0.4,-5.6,30.07,NNW,328,0.0,0.0,78,0.00,,BKN090,0.00,VWS V14.01,2013-02-06 08:05:00,
2013-02-06 02:10:00,-0.2,-5.4,30.07,NNW,328,0.0,0.0,78,0.00,,BKN090,0.00,VWS V14.01,2013-02-06 08:10:00,
2013-02-06 02:15:00,-0.2,-5.2,30.07,NNW,328,0.0,0.0,78,0.00,,BKN090,0.00,VWS V14.01,2013-02-06 08:15:00,
2013-02-06 02:20:00,0.3,-4.9,30.07,NNW,328,0.0,0.0,78,0.00,,BKN090,0.00,VWS V14.01,2013-02-06 08:20:00,
2013-02-06 02:25:00,0.5,-4.5,30.07,NNW,328,0.0,0.0,79,0.00,,BKN090,0.00,VWS V14.01,2013-02-06 08:25:00,
2013-02-06 02:30:00,0.7,-4.5,30.07,NNW,328,0.0,0.0,78,0.00,,BKN090,0.00,VWS V14.01,2013-02-06 08:30:00,
2013-02-06 02:35:00,1.1,-4.4,30.07,NNW,328,0.0,0.0,77,0.00,,BKN090,0.00,VWS V14.01,2013-02-06 08:35:00,
2013-02-06 02:40:00,1.5,-3.8,30.07,NNW,327,0.0,0.0,78,0.00,,OVC045,0.00,VWS V14.01,2013-02-06 08:40:00,
2013-02-06 02:45:00,1.7,-3.6,30.07,NNW,327,0.0,0.0,78,0.00,,OVC045,0.00,VWS V14.01,2013-02-06 08:45:00,
2013-02-06 02:50:00,2.0,-3.3,30.07,NNW,327,0.0,0.0,78,0.00,,OVC045,0.00,VWS V14.01,2013-02-06 08:50:00,
2013-02-06 02:55:00,2.0,-3.5,30.07,NNW,327,0.0,0.0,77,0.00,,OVC045,0.00,VWS V14.01,2013-02-06 08:55:00,
2013-02-06 03:00:00,2.2,-3.3,30.07,NNW,327,0.0,0.0,77,0.00,,OVC045,0.00,VWS V14.01,2013-02-06 09:00:00,
2013-02-06 03:06:00,2.2,-3.6,30.07,NNW,327,0.0,0.0,76,0.00,,OVC043,0.00,VWS V14.01,2013-02-06 09:06:00,
2013-02-06 03:11:00,2.2,-3.6,30.07,NNW,327,0.0,0.0,76,0.00,,OVC043,0.00,VWS V14.01,2013-02-06 09:11:00,
2013-02-06 03:15:00,2.4,-3.2,30.06,NNW,327,0.0,0.0,77,0.00,,,0.00,VWS V15.00,2013-02-06 09:15:00,
2013-02-06 03:16:00,2.6,-3.0,30.06,NNW,327,0.0,0.0,77,0.00,,OVC043,0.00,VWS V14.01,2013-02-06 09:16:00,
2013-02-06 03:21:00,3.0,-2.6,30.06,NNW,327,0.0,0.0,77,0.00,,OVC043,0.00,VWS V14.01,2013-02-06 09:21:00,
2013-02-06 03:26:00,3.2,-2.4,30.06,NNW,327,0.0,0.0,77,0.00,,OVC043,0.00,VWS V14.01,2013-02-06 09:26:00,
2013-02-06 03:30:00,3.2,-2.4,30.06,NNW,327,0.0,0.0,77,0.00,,,0.00,VWS V15.00,2013-02-06 09:30:00,
2013-02-06 03:31:00,3.4,-2.2,30.06,NNW,327,0.0,0.0,77,0.00,,OVC043,0.00,VWS V14.01,2013-02-06 09:31:00,
2013-02-06 03:36:00,3.5,-1.8,30.06,NNW,327,0.0,0.0,78,0.00,,OVC043,0.00,VWS V14.01,2013-02-06 09:36:00,
2013-02-06 03:41:00,4.1,-0.9,30.06,NNW,327,0.0,0.0,79,0.00,,OVC041,0.00,VWS V14.01,2013-02-06 09:41:00,
2013-02-06 03:45:00,4.1,-1.2,30.05,NNW,327,0.0,0.0,78,0.00,,,0.00,VWS V15.00,2013-02-06 09:45:00,
2013-02-06 03:46:00,4.1,-1.2,30.05,NNW,327,0.0,0.0,78,0.00,,OVC041,0.00,VWS V14.01,2013-02-06 09:46:00,
2013-02-06 03:51:00,3.9,-1.7,30.05,NNW,327,0.0,0.0,77,0.00,,OVC041,0.00,VWS V14.01,2013-02-06 09:51:00,
2013-02-06 03:56:00,3.5,-2.3,30.05,NNW,327,0.0,0.0,76,0.00,,OVC041,0.00,VWS V14.01,2013-02-06 09:56:00,
2013-02-06 04:00:00,3.5,-2.1,30.05,NNW,327,0.0,0.0,77,0.00,,,0.00,VWS V15.00,2013-02-06 10:00:00,
2013-02-06 04:01:00,3.5,-2.1,30.05,NNW,327,0.0,0.0,77,0.00,,OVC041,0.00,VWS V14.01,2013-02-06 10:01:00,
2013-02-06 04:06:00,3.4,-2.5,30.05,NNW,327,0.0,0.0,76,0.00,,OVC041,0.00,VWS V14.01,2013-02-06 10:06:00,
2013-02-06 04:11:00,3.2,-2.4,30.05,NNW,327,0.0,0.0,77,0.00,,OVC041,0.00,VWS V14.01,2013-02-06 10:11:00,
2013-02-06 04:15:00,3.4,-1.9,30.06,NNW,327,0.0,0.0,78,0.00,,,0.00,VWS V15.00,2013-02-06 10:15:00,
2013-02-06 04:16:00,3.5,-1.5,30.06,NNW,327,0.0,0.0,79,0.00,,OVC041,0.00,VWS V14.01,2013-02-06 10:16:00,
2013-02-06 04:21:00,3.7,-1.1,30.06,NNW,327,0.0,0.0,80,0.00,,OVC041,0.00,VWS V14.01,2013-02-06 10:21:00,
2013-02-06 04:26:00,3.9,-0.9,30.06,NNW,327,0.0,0.0,80,0.00,,OVC041,0.00,VWS V14.01,2013-02-06 10:26:00,
2013-02-06 04:30:00,3.9,-0.9,30.04,NNW,327,0.0,0.0,80,0.00,,,0.00,VWS V15.00,2013-02-06 10:30:00,
2013-02-06 04:32:00,3.7,-1.1,30.04,NNW,327,0.0,0.0,80,0.00,,OVC041,0.00,VWS V14.01,2013-02-06 10:32:00,
2013-02-06 04:37:00,3.5,-1.5,30.04,NNW,327,0.0,0.0,79,0.00,,OVC041,0.00,VWS V14.01,2013-02-06 10:37:00,
2013-02-06 04:42:00,3.4,-1.6,30.04,NNW,327,0.0,0.0,79,0.00,,OVC041,0.00,VWS V14.01,2013-02-06 10:42:00,
2013-02-06 04:45:00,3.4,-1.4,30.05,NNW,327,0.0,0.0,80,0.00,,,0.00,VWS V15.00,2013-02-06 10:45:00,
2013-02-06 04:47:00,3.4,-1.4,30.05,NNW,327,0.0,0.0,80,0.00,,OVC041,0.00,VWS V14.01,2013-02-06 10:47:00,
2013-02-06 04:52:00,3.2,-1.8,30.05,NNW,327,0.0,0.0,79,0.00,,OVC041,0.00,VWS V14.01,2013-02-06 10:52:00,
2013-02-06 04:57:00,3.2,-1.6,30.05,West,266,6.0,7.0,80,0.00,,OVC041,0.00,VWS V14.01,2013-02-06 10:57:00,
2013-02-06 05:00:00,3.2,-1.3,30.05,WSW,243,4.0,7.0,81,0.00,,,0.00,VWS V15.00,2013-02-06 11:00:00,
2013-02-06 05:02:00,3.2,-1.3,30.05,WSW,243,2.0,5.0,81,0.00,,SCT100,0.00,VWS V14.01,2013-02-06 11:02:00,
2013-02-06 05:07:00,3.2,-1.6,30.05,WSW,239,4.0,6.0,80,0.00,,SCT100,0.00,VWS V14.01,2013-02-06 11:07:00,
2013-02-06 05:12:00,2.8,-2.0,30.05,WSW,238,3.0,6.0,80,0.00,,SCT100,0.00,VWS V14.01,2013-02-06 11:12:00,
2013-02-06 05:15:00,2.6,-2.4,30.05,WSW,238,4.0,6.0,79,0.00,,,0.00,VWS V15.00,2013-02-06 11:15:00,
2013-02-06 05:17:00,2.6,-2.4,30.05,WSW,238,5.0,5.0,79,0.00,,SCT100,0.00,VWS V14.01,2013-02-06 11:17:00,
2013-02-06 05:22:00,2.4,-2.6,30.05,SW,236,5.0,6.0,79,0.00,,SCT100,0.00,VWS V14.01,2013-02-06 11:22:00,
2013-02-06 05:27:00,2.4,-2.6,30.05,SW,230,5.0,6.0,79,0.00,,SCT100,0.00,VWS V14.01,2013-02-06 11:27:00,
2013-02-06 05:30:00,2.8,-2.0,30.05,SW,229,4.0,7.0,80,0.00,,,0.00,VWS V15.00,2013-02-06 11:30:00,
2013-02-06 05:32:00,3.0,-1.5,30.05,SW,228,5.0,6.0,81,0.00,,SCT100,0.00,VWS V14.01,2013-02-06 11:32:00,
2013-02-06 05:37:00,3.4,-1.1,30.05,SW,228,4.0,6.0,81,0.00,,SCT100,0.00,VWS V14.01,2013-02-06 11:37:00,
2013-02-06 05:42:00,3.4,-1.6,30.05,SW,227,6.0,6.0,79,0.00,,CLR,0.00,VWS V14.01,2013-02-06 11:42:00,
2013-02-06 05:45:00,3.4,-1.4,30.06,SW,225,5.0,7.0,80,0.00,,,0.00,VWS V15.00,2013-02-06 11:45:00,
2013-02-06 05:47:00,3.7,-1.1,30.06,SW,225,5.0,5.0,80,0.00,,CLR,0.00,VWS V14.01,2013-02-06 11:47:00,
2013-02-06 05:52:00,4.7,0.4,30.06,SW,225,4.0,6.0,82,0.00,,CLR,0.00,VWS V14.01,2013-02-06 11:52:00,
2013-02-06 05:57:00,5.0,0.7,30.06,SW,225,4.0,6.0,82,0.00,,CLR,0.00,VWS V14.01,2013-02-06 11:57:00,
2013-02-06 06:00:00,4.8,0.3,30.07,SW,225,3.0,6.0,81,0.00,,,0.00,VWS V15.00,2013-02-06 12:00:00,
2013-02-06 06:02:00,4.7,-0.4,30.07,SW,225,5.0,5.0,79,0.00,,CLR,0.00,VWS V14.01,2013-02-06 12:02:00,
2013-02-06 06:07:00,4.5,-0.3,30.07,SW,225,5.0,6.0,80,0.00,,CLR,0.00,VWS V14.01,2013-02-06 12:07:00,
2013-02-06 06:12:00,5.0,0.7,30.07,SW,225,4.0,6.0,82,0.00,,CLR,0.00,VWS V14.01,2013-02-06 12:12:00,
2013-02-06 06:15:00,4.8,0.3,30.08,SW,225,3.0,6.0,81,0.00,,,0.00,VWS V15.00,2013-02-06 12:15:00,
2013-02-06 06:17:00,4.8,0.0,30.08,SW,225,5.0,5.0,80,0.00,,CLR,0.00,VWS V14.01,2013-02-06 12:17:00,
2013-02-06 06:22:00,5.4,0.9,30.08,SW,225,4.0,6.0,81,0.00,,CLR,0.00,VWS V14.01,2013-02-06 12:22:00,
2013-02-06 06:27:00,6.0,1.7,30.08,SW,225,6.0,6.0,82,0.00,,CLR,0.00,VWS V14.01,2013-02-06 12:27:00,
2013-02-06 06:30:00,6.1,1.8,30.06,SW,215,7.0,7.0,82,0.00,,,0.00,VWS V15.00,2013-02-06 12:30:00,
2013-02-06 06:32:00,6.1,1.8,30.06,SSW,200,6.0,9.0,82,0.00,,CLR,0.00,VWS V14.01,2013-02-06 12:32:00,
2013-02-06 06:38:00,6.3,2.0,30.06,South,184,7.0,9.0,82,0.00,,CLR,0.00,VWS V14.01,2013-02-06 12:38:00,
2013-02-06 06:43:00,6.9,2.6,30.06,South,182,7.0,9.0,82,0.00,,CLR,0.00,VWS V14.01,2013-02-06 12:43:00,
2013-02-06 06:45:00,7.0,2.7,30.06,South,180,7.0,9.0,82,0.00,,,0.00,VWS V15.00,2013-02-06 12:45:00,
2013-02-06 06:48:00,7.0,2.7,30.06,South,180,6.0,7.0,82,0.00,,CLR,0.00,VWS V14.01,2013-02-06 12:48:00,
2013-02-06 06:53:00,7.0,2.7,30.06,South,180,6.0,7.0,82,0.00,,CLR,0.00,VWS V14.01,2013-02-06 12:53:00,
2013-02-06 06:58:00,7.0,2.7,30.06,South,180,5.0,8.0,82,0.00,,CLR,0.00,VWS V14.01,2013-02-06 12:58:00,
2013-02-06 07:00:00,7.0,2.7,30.08,South,180,6.0,8.0,82,0.00,,,0.00,VWS V15.00,2013-02-06 13:00:00,
2013-02-06 07:03:00,7.0,2.7,30.08,South,181,7.0,9.0,82,0.00,,CLR,0.00,VWS V14.01,2013-02-06 13:03:00,
2013-02-06 07:08:00,7.0,2.7,30.08,South,181,6.0,11.0,82,0.00,,CLR,0.00,VWS V14.01,2013-02-06 13:08:00,
2013-02-06 07:13:00,7.4,3.1,30.08,South,180,6.0,11.0,82,0.00,,CLR,0.00,VWS V14.01,2013-02-06 13:13:00,
2013-02-06 07:15:00,7.4,3.1,30.08,South,180,6.0,11.0,82,0.00,,,0.00,VWS V15.00,2013-02-06 13:15:00,
2013-02-06 07:18:00,7.6,3.3,30.08,South,180,5.0,9.0,82,0.00,,CLR,0.00,VWS V14.01,2013-02-06 13:18:00,
2013-02-06 07:23:00,7.7,3.4,30.08,South,177,6.0,11.0,82,0.00,,CLR,0.00,VWS V14.01,2013-02-06 13:23:00,
2013-02-06 07:28:00,7.9,3.6,30.08,South,177,4.0,11.0,82,0.00,,CLR,0.00,VWS V14.01,2013-02-06 13:28:00,
2013-02-06 07:30:00,7.9,3.6,30.08,South,177,7.0,11.0,82,0.00,,,0.00,VWS V15.00,2013-02-06 13:30:00,
2013-02-06 07:33:00,8.1,3.8,30.08,South,177,5.0,9.0,82,0.00,,SCT090,0.00,VWS V14.01,2013-02-06 13:33:00,
2013-02-06 07:38:00,7.9,3.3,30.08,South,176,5.0,9.0,81,0.00,,SCT090,0.00,VWS V14.01,2013-02-06 13:38:00,
2013-02-06 07:43:00,8.1,3.5,30.08,South,176,5.0,9.0,81,0.00,,SCT090,0.00,VWS V14.01,2013-02-06 13:43:00,
2013-02-06 07:45:00,8.1,3.5,30.07,South,176,5.0,9.0,81,0.00,,,0.00,VWS V15.00,2013-02-06 13:45:00,
2013-02-06 07:48:00,8.1,3.5,30.07,South,176,4.0,6.0,81,0.00,,SCT090,0.00,VWS V14.01,2013-02-06 13:48:00,
2013-02-06 07:53:00,8.1,3.5,30.07,South,176,4.0,6.0,81,0.00,,SCT090,0.00,VWS V14.01,2013-02-06 13:53:00,
2013-02-06 07:58:00,8.1,3.2,30.07,South,176,6.0,6.0,80,0.00,,SCT090,0.00,VWS V14.01,2013-02-06 13:58:00,
2013-02-06 08:00:00,8.1,3.2,30.07,South,176,4.0,7.0,80,0.00,,,0.00,VWS V15.00,2013-02-06 14:00:00,
2013-02-06 08:03:00,8.1,3.2,30.07,South,176,5.0,6.0,80,0.00,,CLR,0.00,VWS V14.01,2013-02-06 14:03:00,
2013-02-06 08:08:00,8.3,3.4,30.07,South,175,6.0,7.0,80,0.00,,CLR,0.00,VWS V14.01,2013-02-06 14:08:00,
2013-02-06 08:13:00,8.3,3.4,30.07,South,175,2.0,7.0,80,0.00,,CLR,0.00,VWS V14.01,2013-02-06 14:13:00,
2013-02-06 08:15:00,8.3,3.4,30.08,South,175,3.0,7.0,80,0.00,,,0.00,VWS V15.00,2013-02-06 14:15:00,
2013-02-06 08:18:00,8.3,3.4,30.08,South,175,4.0,5.0,80,0.00,,CLR,0.00,VWS V14.01,2013-02-06 14:18:00,
2013-02-06 08:23:00,8.4,3.2,30.08,South,175,5.0,5.0,79,0.00,,CLR,0.00,VWS V14.01,2013-02-06 14:23:00,
2013-02-06 08:28:00,8.6,3.7,30.08,South,175,6.0,6.0,80,0.00,,CLR,0.00,VWS V14.01,2013-02-06 14:28:00,
2013-02-06 08:30:00,8.8,3.9,30.08,South,175,5.0,6.0,80,0.00,,,0.00,VWS V15.00,2013-02-06 14:30:00,
2013-02-06 08:34:00,8.8,3.6,30.08,South,175,6.0,7.0,79,0.00,,OVC110,0.00,VWS V14.01,2013-02-06 14:34:00,
2013-02-06 08:39:00,9.0,3.8,30.08,South,172,8.0,10.0,79,0.00,,OVC110,0.00,VWS V14.01,2013-02-06 14:39:00,
2013-02-06 08:44:00,9.2,4.0,30.08,South,172,5.0,10.0,79,0.00,,OVC110,0.00,VWS V14.01,2013-02-06 14:44:00,
2013-02-06 08:45:00,9.3,4.1,30.08,South,172,5.0,10.0,79,0.00,,,0.00,VWS V15.00,2013-02-06 14:45:00,
2013-02-06 08:49:00,9.3,4.1,30.08,South,171,7.0,7.0,79,0.00,,OVC110,0.00,VWS V14.01,2013-02-06 14:49:00,
2013-02-06 08:54:00,9.7,4.5,30.08,South,170,3.0,7.0,79,0.00,,OVC110,0.00,VWS V14.01,2013-02-06 14:54:00,
2013-02-06 08:59:00,10.0,4.8,30.08,South,170,2.0,7.0,79,0.00,,OVC110,0.00,VWS V14.01,2013-02-06 14:59:00,
2013-02-06 09:00:00,10.2,5.0,30.08,South,170,3.0,7.0,79,0.00,,,0.00,VWS V15.00,2013-02-06 15:00:00,
2013-02-06 09:04:00,10.5,5.3,30.08,South,170,4.0,4.0,79,0.00,,OVC110,0.00,VWS V14.01,2013-02-06 15:04:00,
2013-02-06 09:09:00,10.9,5.4,30.08,South,170,1.0,5.0,78,0.00,,OVC110,0.00,VWS V14.01,2013-02-06 15:09:00,
2013-02-06 09:14:00,11.1,5.6,30.08,South,170,3.0,6.0,78,0.00,,OVC110,0.00,VWS V14.01,2013-02-06 15:14:00,
2013-02-06 09:15:00,11.2,5.7,30.08,South,170,2.0,6.0,78,0.00,,,0.00,VWS V15.00,2013-02-06 15:15:00,
2013-02-06 09:19:00,11.4,5.9,30.08,South,170,7.0,7.0,78,0.00,,OVC110,0.00,VWS V14.01,2013-02-06 15:19:00,
2013-02-06 09:24:00,11.6,6.1,30.08,South,170,6.0,8.0,78,0.00,,OVC110,0.00,VWS V14.01,2013-02-06 15:24:00,
2013-02-06 09:29:00,11.6,5.8,30.08,SSE,164,6.0,11.0,77,0.00,,OVC110,0.00,VWS V14.01,2013-02-06 15:29:00,
2013-02-06 09:30:00,11.6,5.8,30.08,SSE,164,6.0,11.0,77,0.00,,,0.00,VWS V15.00,2013-02-06 15:30:00,
2013-02-06 09:34:00,11.7,6.2,30.08,SSE,163,5.0,8.0,78,0.00,,OVC070,0.00,VWS V14.01,2013-02-06 15:34:00,
2013-02-06 09:39:00,11.7,5.9,30.08,SSE,163,5.0,8.0,77,0.00,,OVC070,0.00,VWS V14.01,2013-02-06 15:39:00,
2013-02-06 09:44:00,11.9,6.4,30.08,SSE,163,7.0,8.0,78,0.00,,OVC070,0.00,VWS V14.01,2013-02-06 15:44:00,
2013-02-06 09:45:00,11.9,6.4,30.08,SSE,161,7.0,9.0,78,0.00,,,0.00,VWS V15.00,2013-02-06 15:45:00,
2013-02-06 09:49:00,12.1,6.6,30.08,SSE,161,7.0,9.0,78,0.00,,OVC070,0.00,VWS V14.01,2013-02-06 15:49:00,
2013-02-06 09:54:00,11.9,6.1,30.08,SSE,160,7.0,9.0,77,0.00,,OVC070,0.00,VWS V14.01,2013-02-06 15:54:00,
2013-02-06 09:59:00,11.9,6.4,30.08,SSE,161,6.0,9.0,78,0.00,,OVC070,0.00,VWS V14.01,2013-02-06 15:59:00,
2013-02-06 10:00:00,11.9,6.4,30.08,SSE,161,6.0,9.0,78,0.00,,,0.00,VWS V15.00,2013-02-06 16:00:00,
2013-02-06 10:04:00,12.1,6.6,30.08,SSE,160,6.0,6.0,78,0.00,,OVC060,0.00,VWS V14.01,2013-02-06 16:04:00,
2013-02-06 10:09:00,12.1,6.8,30.08,SSE,160,7.0,9.0,79,0.00,,OVC060,0.00,VWS V14.01,2013-02-06 16:09:00,
2013-02-06 10:14:00,12.3,7.0,30.08,SSE,160,9.0,10.0,79,0.00,,OVC060,0.00,VWS V14.01,2013-02-06 16:14:00,
2013-02-06 10:15:00,12.3,7.0,30.08,SSE,160,6.0,10.0,79,0.00,,,0.00,VWS V15.00,2013-02-06 16:15:00,
2013-02-06 10:19:00,12.3,7.0,30.08,SSE,160,5.0,7.0,79,0.00,,OVC060,0.00,VWS V14.01,2013-02-06 16:19:00,
2013-02-06 10:24:00,12.4,7.1,30.08,SSE,160,7.0,8.0,79,0.00,,OVC060,0.00,VWS V14.01,2013-02-06 16:24:00,
2013-02-06 10:29:00,12.4,7.1,30.09,SSE,160,5.0,8.0,79,0.00,,OVC060,0.00,VWS V14.01,2013-02-06 16:29:00,
2013-02-06 10:30:00,12.6,7.3,30.09,SSE,160,5.0,8.0,79,0.00,,,0.00,VWS V15.00,2013-02-06 16:30:00,
2013-02-06 10:34:00,12.6,7.3,30.09,SSE,159,6.0,10.0,79,0.00,,OVC040,0.00,VWS V14.01,2013-02-06 16:34:00,
2013-02-06 10:40:00,12.8,7.5,30.09,SSE,158,7.0,10.0,79,0.00,,OVC040,0.00,VWS V14.01,2013-02-06 16:40:00,
2013-02-06 10:45:00,12.8,7.5,30.09,SSE,158,9.0,10.0,79,0.00,,OVC040,0.00,VWS V14.01,2013-02-06 16:45:00,
2013-02-06 10:50:00,12.8,7.2,30.09,SSE,154,7.0,12.0,78,0.00,,OVC040,0.00,VWS V14.01,2013-02-06 16:50:00,
2013-02-06 10:55:00,12.9,7.6,30.09,SSE,153,10.0,12.0,79,0.00,,OVC040,0.00,VWS V14.01,2013-02-06 16:55:00,
2013-02-06 11:00:00,13.1,7.8,30.08,SSE,151,5.0,12.0,79,0.00,,OVC040,0.00,VWS V14.01,2013-02-06 17:00:00,
2013-02-06 11:05:00,13.3,8.0,30.08,SSE,149,7.0,12.0,79,0.00,,,0.00,VWS V14.01,2013-02-06 17:05:00,
2013-02-06 11:10:00,13.3,8.0,30.08,SSE,148,3.0,12.0,79,0.00,,,0.00,VWS V14.01,2013-02-06 17:10:00,
2013-02-06 11:15:00,13.6,8.3,30.08,SSE,149,5.0,12.0,79,0.00,,,0.00,VWS V14.01,2013-02-06 17:15:00,
2013-02-06 11:20:00,13.8,8.8,30.08,SSE,149,6.0,9.0,80,0.00,,,0.00,VWS V14.01,2013-02-06 17:20:00,
2013-02-06 11:25:00,13.8,8.8,30.08,SSE,149,4.0,9.0,80,0.00,,,0.00,VWS V14.01,2013-02-06 17:25:00,
2013-02-06 11:30:00,13.8,8.8,30.08,SSE,149,7.0,11.0,80,0.00,,,0.00,VWS V14.01,2013-02-06 17:30:00,
2013-02-06 11:35:00,13.8,9.1,30.08,SSE,149,5.0,8.0,81,0.00,,,0.00,VWS V14.01,2013-02-06 17:35:00,
2013-02-06 11:40:00,14.0,9.3,30.08,SSE,149,3.0,8.0,81,0.00,,,0.00,VWS V14.01,2013-02-06 17:40:00,
2013-02-06 11:45:00,14.1,9.6,30.07,SSE,149,5.0,8.0,82,0.00,,,0.00,VWS V14.01,2013-02-06 17:45:00,
2013-02-06 11:50:00,14.1,9.6,30.07,SSE,149,6.0,7.0,82,0.00,,,0.00,VWS V14.01,2013-02-06 17:50:00,
2013-02-06 11:55:00,14.3,9.8,30.07,SSE,149,5.0,8.0,82,0.00,,,0.00,VWS V14.01,2013-02-06 17:55:00,
2013-02-06 12:00:00,14.6,10.4,30.06,SSE,148,0.0,8.0,83,0.00,,,0.00,VWS V14.01,2013-02-06 18:00:00,
2013-02-06 12:05:00,14.9,10.7,30.06,SSE,148,1.0,4.0,83,0.00,,,0.00,VWS V14.01,2013-02-06 18:05:00,
2013-02-06 12:10:00,15.4,11.4,30.06,SE,145,7.0,7.0,84,0.00,,,0.00,VWS V14.01,2013-02-06 18:10:00,
2013-02-06 12:15:00,15.6,11.6,30.05,SE,130,3.0,7.0,84,0.00,,,0.00,VWS V14.01,2013-02-06 18:15:00,
2013-02-06 12:20:00,15.7,11.7,30.05,SE,126,2.0,8.0,84,0.00,,,0.00,VWS V14.01,2013-02-06 18:20:00,
2013-02-06 12:25:00,16.1,12.1,30.05,ESE,123,3.0,8.0,84,0.00,,,0.00,VWS V14.01,2013-02-06 18:25:00,
2013-02-06 12:30:00,16.2,12.2,30.03,ESE,120,5.0,8.0,84,0.00,,,0.00,VWS V14.01,2013-02-06 18:30:00,
2013-02-06 12:35:00,16.2,12.2,30.03,ESE,117,10.0,10.0,84,0.00,,,0.00,VWS V14.01,2013-02-06 18:35:00,
2013-02-06 12:40:00,16.4,12.4,30.03,ESE,120,4.0,12.0,84,0.00,,,0.00,VWS V14.01,2013-02-06 18:40:00,
2013-02-06 12:45:00,16.4,12.4,30.03,ESE,119,3.0,4.0,84,0.00,,,0.00,VWS V14.01,2013-02-06 18:45:00,
2013-02-06 12:50:00,16.7,12.7,30.03,ESE,109,6.0,10.0,84,0.00,,,0.00,VWS V14.01,2013-02-06 18:50:00,
2013-02-06 12:55:00,16.9,12.9,30.03,ESE,109,5.0,10.0,84,0.00,,,0.00,VWS V14.01,2013-02-06 18:55:00,
2013-02-06 13:00:00,17.2,13.2,30.02,ESE,108,0.0,0.0,84,0.00,,,0.00,VWS V14.01,2013-02-06 19:00:00,
2013-02-06 13:06:00,17.8,14.1,30.02,ESE,108,0.0,0.0,85,0.00,,,0.00,VWS V14.01,2013-02-06 19:06:00,
2013-02-06 13:11:00,18.3,14.3,30.02,ESE,108,0.0,0.0,84,0.00,,,0.00,VWS V14.01,2013-02-06 19:11:00,
2013-02-06 13:15:00,18.6,14.6,30.01,ESE,108,0.0,2.0,84,0.00,,,0.00,VWS V15.00,2013-02-06 19:15:00,
2013-02-06 13:16:00,18.6,14.6,30.01,ESE,108,1.0,1.0,84,0.00,,,0.00,VWS V14.01,2013-02-06 19:16:00,
2013-02-06 13:21:00,18.6,14.6,30.01,ESE,106,3.0,6.0,84,0.00,,,0.00,VWS V14.01,2013-02-06 19:21:00,
2013-02-06 13:26:00,18.8,14.5,30.01,East,101,0.0,7.0,83,0.00,,,0.00,VWS V14.01,2013-02-06 19:26:00,
2013-02-06 13:30:00,19.1,14.8,30.01,East,100,0.0,7.0,83,0.00,,,0.00,VWS V15.00,2013-02-06 19:30:00,
2013-02-06 13:31:00,19.1,14.8,30.01,East,100,0.0,0.0,83,0.00,,,0.00,VWS V14.01,2013-02-06 19:31:00,
2013-02-06 13:36:00,19.4,15.1,30.01,East,100,0.0,3.0,83,0.00,,,0.00,VWS V14.01,2013-02-06 19:36:00,
2013-02-06 13:41:00,19.4,14.8,30.01,East,100,0.0,4.0,82,0.00,,,0.00,VWS V14.01,2013-02-06 19:41:00,
2013-02-06 13:45:00,19.5,14.9,30.00,East,100,0.0,4.0,82,0.00,,,0.00,VWS V15.00,2013-02-06 19:45:00,
2013-02-06 13:46:00,19.5,14.9,30.00,East,100,0.0,0.0,82,0.00,,,0.00,VWS V14.01,2013-02-06 19:46:00,
2013-02-06 13:51:00,19.7,15.1,30.00,East,100,0.0,0.0,82,0.00,,,0.00,VWS V14.01,2013-02-06 19:51:00,
2013-02-06 13:56:00,19.7,15.1,30.00,East,100,0.0,2.0,82,0.00,,,0.00,VWS V14.01,2013-02-06 19:56:00,
2013-02-06 14:00:00,19.7,15.1,29.99,East,100,2.0,5.0,82,0.00,,,0.00,VWS V15.00,2013-02-06 20:00:00,
2013-02-06 14:01:00,19.7,15.1,29.99,East,100,1.0,3.0,82,0.00,,,0.00,VWS V14.01,2013-02-06 20:01:00,
2013-02-06 14:06:00,19.7,15.1,29.99,East,99,3.0,4.0,82,0.00,,,0.00,VWS V14.01,2013-02-06 20:06:00,
2013-02-06 14:11:00,19.7,14.8,29.99,East,100,0.0,4.0,81,0.00,,,0.00,VWS V14.01,2013-02-06 20:11:00,
2013-02-06 14:15:00,19.7,14.8,29.98,East,99,3.0,6.0,81,0.00,,,0.00,VWS V15.00,2013-02-06 20:15:00,
2013-02-06 14:16:00,19.7,14.8,29.98,East,99,2.0,3.0,81,0.00,,,0.00,VWS V14.01,2013-02-06 20:16:00,
2013-02-06 14:21:00,19.7,14.8,29.98,East,98,1.0,6.0,81,0.00,,,0.00,VWS V14.01,2013-02-06 20:21:00,
2013-02-06 14:26:00,19.9,15.0,29.98,East,94,1.0,6.0,81,0.00,,,0.00,VWS V14.01,2013-02-06 20:26:00,
2013-02-06 14:30:00,19.7,14.8,29.97,East,95,1.0,6.0,81,0.00,,,0.00,VWS V15.00,2013-02-06 20:30:00,
2013-02-06 14:31:00,19.7,14.8,29.97,East,94,0.0,6.0,81,0.00,,,0.00,VWS V14.01,2013-02-06 20:31:00,
2013-02-06 14:36:00,19.9,15.0,29.97,East,94,2.0,6.0,81,0.00,,,0.00,VWS V14.01,2013-02-06 20:36:00,
2013-02-06 14:41:00,20.0,15.1,29.97,East,88,1.0,10.0,81,0.00,,,0.00,VWS V14.01,2013-02-06 20:41:00,
2013-02-06 14:45:00,20.0,15.1,29.96,East,87,10.0,10.0,81,0.00,,,0.00,VWS V15.00,2013-02-06 20:45:00,
2013-02-06 14:46:00,20.0,15.1,29.96,East,97,10.0,11.0,81,0.00,,,0.00,VWS V14.01,2013-02-06 20:46:00,
2013-02-06 14:51:00,20.2,15.3,29.96,East,93,4.0,15.0,81,0.00,,,0.00,VWS V14.01,2013-02-06 20:51:00,
2013-02-06 14:56:00,20.2,15.3,29.96,East,82,3.0,15.0,81,0.00,,,0.00,VWS V14.01,2013-02-06 20:56:00,
2013-02-06 15:00:00,20.2,15.0,29.95,ENE,75,2.0,15.0,80,0.00,,,0.00,VWS V15.00,2013-02-06 21:00:00,
2013-02-06 15:01:00,20.2,15.0,29.95,East,85,7.0,7.0,80,0.00,,OVC065,0.00,VWS V14.01,2013-02-06 21:01:00,
2013-02-06 15:06:00,20.3,15.1,29.95,ESE,113,8.0,14.0,80,0.00,,OVC065,0.00,VWS V14.01,2013-02-06 21:06:00,
2013-02-06 15:12:00,20.3,15.1,29.95,ESE,108,3.0,15.0,80,0.00,,OVC065,0.00,VWS V14.01,2013-02-06 21:12:00,
2013-02-06 15:15:00,20.3,15.1,29.94,ESE,104,9.0,15.0,80,0.00,,,0.00,VWS V15.00,2013-02-06 21:15:00,
2013-02-06 15:17:00,20.3,15.1,29.94,ESE,111,7.0,12.0,80,0.00,,OVC065,0.00,VWS V14.01,2013-02-06 21:17:00,
2013-02-06 15:22:00,20.3,15.1,29.94,ESE,103,10.0,12.0,80,0.00,,OVC065,0.00,VWS V14.01,2013-02-06 21:22:00,
2013-02-06 15:27:00,20.3,15.1,29.94,ESE,117,10.0,12.0,80,0.00,,OVC065,0.00,VWS V14.01,2013-02-06 21:27:00,
2013-02-06 15:30:00,20.5,15.3,29.96,ESE,117,0.0,12.0,80,0.00,,,0.00,VWS V15.00,2013-02-06 21:30:00,
2013-02-06 15:32:00,20.5,15.3,29.96,ESE,117,1.0,2.0,80,0.00,,OVC055,0.00,VWS V14.01,2013-02-06 21:32:00,
2013-02-06 15:37:00,20.6,15.4,29.96,ESE,117,6.0,6.0,80,0.00,,OVC055,0.00,VWS V14.01,2013-02-06 21:37:00,
2013-02-06 15:42:00,20.8,15.6,29.96,ESE,115,3.0,9.0,80,0.00,,OVC055,0.00,VWS V14.01,2013-02-06 21:42:00,
2013-02-06 15:45:00,20.8,15.6,29.96,ESE,115,4.0,9.0,80,0.00,,,0.00,VWS V15.00,2013-02-06 21:45:00,
2013-02-06 15:47:00,20.8,15.6,29.96,ESE,115,4.0,4.0,80,0.00,,OVC055,0.00,VWS V14.01,2013-02-06 21:47:00,
2013-02-06 15:52:00,21.0,15.8,29.96,ESE,115,4.0,6.0,80,0.00,,OVC055,0.00,VWS V14.01,2013-02-06 21:52:00,
2013-02-06 15:57:00,21.0,15.5,29.96,ESE,114,2.0,6.0,79,0.00,,OVC055,0.00,VWS V14.01,2013-02-06 21:57:00,
2013-02-06 16:00:00,21.1,15.6,29.96,ESE,114,0.0,6.0,79,0.00,,,0.00,VWS V15.00,2013-02-06 22:00:00,
2013-02-06 16:02:00,21.1,15.6,29.96,ESE,114,0.0,0.0,79,0.00,,OVC050,0.00,VWS V14.01,2013-02-06 22:02:00,
2013-02-06 16:07:00,21.1,15.6,29.96,ESE,114,0.0,0.0,79,0.00,,OVC050,0.00,VWS V14.01,2013-02-06 22:07:00,
2013-02-06 16:12:00,21.3,15.8,29.96,ESE,114,3.0,3.0,79,0.00,,OVC050,0.00,VWS V14.01,2013-02-06 22:12:00,
2013-02-06 16:15:00,21.1,15.6,29.96,ESE,114,0.0,4.0,79,0.00,,,0.00,VWS V15.00,2013-02-06 22:15:00,
2013-02-06 16:17:00,21.1,15.9,29.96,SE,132,7.0,12.0,80,0.00,,OVC050,0.00,VWS V14.01,2013-02-06 22:17:00,
2013-02-06 16:22:00,21.1,15.9,29.96,ESE,118,5.0,12.0,80,0.00,,OVC050,0.00,VWS V14.01,2013-02-06 22:22:00,
2013-02-06 16:27:00,21.1,15.9,29.96,ESE,118,4.0,12.0,80,0.00,,OVC050,0.00,VWS V14.01,2013-02-06 22:27:00,
2013-02-06 16:30:00,21.1,15.9,29.95,ESE,108,5.0,12.0,80,0.00,,,0.00,VWS V15.00,2013-02-06 22:30:00,
2013-02-06 16:32:00,21.1,15.9,29.95,ESE,108,5.0,6.0,80,0.00,,OVC033,0.00,VWS V14.01,2013-02-06 22:32:00,
2013-02-06 16:37:00,21.0,15.8,29.95,ESE,108,5.0,6.0,80,0.00,,OVC033,0.00,VWS V14.01,2013-02-06 22:37:00,
2013-02-06 16:42:00,21.0,15.8,29.95,ESE,112,6.0,9.0,80,0.00,,OVC033,0.00,VWS V14.01,2013-02-06 22:42:00,
2013-02-06 16:45:00,20.8,15.6,29.95,ESE,111,6.0,10.0,80,0.00,,,0.00,VWS V15.00,2013-02-06 22:45:00,
2013-02-06 16:47:00,20.8,15.6,29.95,ESE,106,6.0,11.0,80,0.00,,OVC033,0.00,VWS V14.01,2013-02-06 22:47:00,
2013-02-06 16:52:00,20.8,15.6,29.95,East,101,6.0,12.0,80,0.00,,OVC033,0.00,VWS V14.01,2013-02-06 22:52:00,
2013-02-06 16:57:00,20.6,15.4,29.95,ESE,112,4.0,12.0,80,0.00,,OVC033,0.00,VWS V14.01,2013-02-06 22:57:00,
2013-02-06 17:00:00,20.6,15.4,29.95,ESE,111,6.0,12.0,80,0.00,,,0.00,VWS V15.00,2013-02-06 23:00:00,
2013-02-06 17:02:00,20.6,15.4,29.95,ESE,108,7.0,9.0,80,0.00,,OVC031,0.00,VWS V14.01,2013-02-06 23:02:00,
2013-02-06 17:07:00,20.6,15.4,29.95,ESE,119,4.0,10.0,80,0.00,,OVC031,0.00,VWS V14.01,2013-02-06 23:07:00,
2013-02-06 17:12:00,20.6,15.4,29.95,ESE,119,5.0,10.0,80,0.00,,OVC031,0.00,VWS V14.01,2013-02-06 23:12:00,
2013-02-06 17:15:00,20.6,15.4,29.95,ESE,119,3.0,10.0,80,0.00,,,0.00,VWS V15.00,2013-02-06 23:15:00,
2013-02-06 17:17:00,20.6,15.4,29.95,ESE,119,3.0,6.0,80,0.00,,OVC031,0.00,VWS V14.01,2013-02-06 23:17:00,
2013-02-06 17:22:00,20.6,15.7,29.95,ESE,116,2.0,7.0,81,0.00,,OVC031,0.00,VWS V14.01,2013-02-06 23:22:00,
2013-02-06 17:28:00,20.6,15.4,29.95,ESE,117,4.0,9.0,80,0.00,,OVC031,0.00,VWS V14.01,2013-02-06 23:28:00,
2013-02-06 17:30:00,20.6,15.4,29.95,ESE,117,6.0,9.0,80,0.00,,,0.00,VWS V15.00,2013-02-06 23:30:00,
2013-02-06 17:33:00,20.6,15.7,29.95,ESE,117,5.0,8.0,81,0.00,,OVC027,0.00,VWS V14.01,2013-02-06 23:33:00,
2013-02-06 17:38:00,20.6,15.7,29.95,ESE,116,7.0,9.0,81,0.00,,OVC027,0.00,VWS V14.01,2013-02-06 23:38:00,
2013-02-06 17:43:00,20.6,15.4,29.95,ESE,114,2.0,9.0,80,0.00,,OVC027,0.00,VWS V14.01,2013-02-06 23:43:00,
2013-02-06 17:45:00,20.6,15.4,29.96,ESE,113,2.0,9.0,80,0.00,,,0.00,VWS V15.00,2013-02-06 23:45:00,
2013-02-06 17:48:00,20.6,15.4,29.96,ESE,113,4.0,5.0,80,0.00,,OVC027,0.00,VWS V14.01,2013-02-06 23:48:00,
2013-02-06 17:53:00,20.6,15.7,29.96,ESE,114,5.0,10.0,81,0.00,,OVC027,0.00,VWS V14.01,2013-02-06 23:53:00,
2013-02-06 17:58:00,20.8,15.9,29.96,ESE,112,4.0,10.0,81,0.00,,OVC027,0.00,VWS V14.01,2013-02-06 23:58:00,
2013-02-06 18:00:00,20.8,15.9,29.96,ESE,111,3.0,10.0,81,0.00,,,0.00,VWS V15.00,2013-02-07 00:00:00,
2013-02-06 18:03:00,20.8,15.9,29.96,ESE,111,3.0,6.0,81,0.00,,OVC025,0.00,VWS V14.01,2013-02-07 00:03:00,
2013-02-06 18:08:00,21.0,16.1,29.96,ESE,111,3.0,7.0,81,0.00,,OVC025,0.00,VWS V14.01,2013-02-07 00:08:00,
2013-02-06 18:13:00,21.0,16.1,29.96,ESE,108,1.0,8.0,81,0.00,,OVC034,0.00,VWS V14.01,2013-02-07 00:13:00,
2013-02-06 18:15:00,21.0,16.1,29.95,ESE,108,0.0,8.0,81,0.00,,,0.00,VWS V15.00,2013-02-07 00:15:00,
2013-02-06 18:18:00,21.0,16.1,29.95,ESE,108,3.0,4.0,81,0.00,,OVC034,0.00,VWS V14.01,2013-02-07 00:18:00,
2013-02-06 18:23:00,21.0,16.1,29.95,ESE,108,1.0,6.0,81,0.00,,OVC034,0.00,VWS V14.01,2013-02-07 00:23:00,
2013-02-06 18:28:00,21.0,16.1,29.95,ESE,109,2.0,7.0,81,0.00,,OVC034,0.00,VWS V14.01,2013-02-07 00:28:00,
2013-02-06 18:30:00,21.0,16.1,29.96,ESE,109,2.0,7.0,81,0.00,,,0.00,VWS V15.00,2013-02-07 00:30:00,
2013-02-06 18:33:00,21.1,16.5,29.96,ESE,109,0.0,3.0,82,0.00,,OVC032,0.00,VWS V14.01,2013-02-07 00:33:00,
2013-02-06 18:38:00,21.1,16.5,29.96,ESE,108,3.0,4.0,82,0.00,,OVC032,0.00,VWS V14.01,2013-02-07 00:38:00,
2013-02-06 18:43:00,21.1,16.5,29.96,ESE,108,2.0,4.0,82,0.00,,OVC032,0.00,VWS V14.01,2013-02-07 00:43:00,
2013-02-06 18:45:00,21.1,16.5,29.96,ESE,108,2.0,4.0,82,0.00,,,0.00,VWS V15.00,2013-02-07 00:45:00,
2013-02-06 18:48:00,21.0,16.4,29.96,ESE,108,3.0,4.0,82,0.00,,OVC032,0.00,VWS V14.01,2013-02-07 00:48:00,
2013-02-06 18:53:00,21.1,16.5,29.96,ESE,108,3.0,4.0,82,0.00,,OVC032,0.00,VWS V14.01,2013-02-07 00:53:00,
2013-02-06 18:58:00,21.1,16.5,29.96,ESE,108,3.0,5.0,82,0.00,,OVC032,0.00,VWS V14.01,2013-02-07 00:58:00,
2013-02-06 19:00:00,21.1,16.5,29.96,ESE,108,3.0,5.0,82,0.00,,,0.00,VWS V15.00,2013-02-07 01:00:00,
2013-02-06 19:03:00,21.1,16.5,29.96,ESE,108,2.0,4.0,82,0.00,,OVC023,0.00,VWS V14.01,2013-02-07 01:03:00,
2013-02-06 19:08:00,21.3,16.7,29.96,ESE,108,3.0,4.0,82,0.00,,OVC023,0.00,VWS V14.01,2013-02-07 01:08:00,
2013-02-06 19:13:00,21.3,16.7,29.96,ESE,108,2.0,4.0,82,0.00,,OVC023,0.00,VWS V14.01,2013-02-07 01:13:00,
2013-02-06 19:15:00,21.3,16.7,29.97,ESE,108,2.0,4.0,82,0.00,,,0.00,VWS V15.00,2013-02-07 01:15:00,
2013-02-06 19:18:00,21.3,16.7,29.97,ESE,108,2.0,4.0,82,0.00,,OVC023,0.00,VWS V14.01,2013-02-07 01:18:00,
2013-02-06 19:23:00,21.3,16.7,29.97,ESE,108,2.0,4.0,82,0.00,,OVC023,0.00,VWS V14.01,2013-02-07 01:23:00,
2013-02-06 19:28:00,21.3,16.7,29.97,ESE,108,0.0,4.0,82,0.00,,OVC023,0.00,VWS V14.01,2013-02-07 01:28:00,
2013-02-06 19:30:00,21.3,16.7,29.97,ESE,108,0.0,4.0,82,0.00,,,0.00,VWS V15.00,2013-02-07 01:30:00,
2013-02-06 19:34:00,21.4,16.8,29.97,ESE,108,0.0,0.0,82,0.00,,OVC030,0.00,VWS V14.01,2013-02-07 01:34:00,
2013-02-06 19:39:00,21.4,17.0,29.97,ESE,108,0.0,0.0,83,0.00,,OVC030,0.00,VWS V14.01,2013-02-07 01:39:00,
2013-02-06 19:44:00,21.4,17.0,29.97,ESE,108,0.0,0.0,83,0.00,,OVC030,0.00,VWS V14.01,2013-02-07 01:44:00,
2013-02-06 19:45:00,21.4,17.0,29.97,ESE,108,0.0,0.0,83,0.00,,,0.00,VWS V15.00,2013-02-07 01:45:00,
2013-02-06 19:49:00,21.4,17.0,29.97,ESE,108,0.0,0.0,83,0.00,,OVC030,0.00,VWS V14.01,2013-02-07 01:49:00,
2013-02-06 19:54:00,21.4,17.0,29.97,ESE,108,0.0,0.0,83,0.00,,OVC030,0.00,VWS V14.01,2013-02-07 01:54:00,
2013-02-06 19:59:00,21.4,17.0,29.97,ESE,108,0.0,0.0,83,0.00,,OVC030,0.00,VWS V14.01,2013-02-07 01:59:00,
2013-02-06 20:00:00,21.4,17.0,29.97,ESE,108,0.0,0.0,83,0.00,,,0.00,VWS V15.00,2013-02-07 02:00:00,
2013-02-06 20:04:00,21.6,17.2,29.97,ESE,108,0.0,0.0,83,0.00,,OVC028,0.00,VWS V14.01,2013-02-07 02:04:00,
2013-02-06 20:09:00,21.8,17.4,29.97,ESE,108,0.0,0.0,83,0.00,,OVC028,0.00,VWS V14.01,2013-02-07 02:09:00,
2013-02-06 20:14:00,21.8,17.4,29.97,ESE,108,0.0,0.0,83,0.00,,OVC028,0.00,VWS V14.01,2013-02-07 02:14:00,
2013-02-06 20:15:00,21.8,17.4,29.97,ESE,108,0.0,0.0,83,0.00,,,0.00,VWS V15.00,2013-02-07 02:15:00,
2013-02-06 20:19:00,21.9,17.5,29.97,ESE,108,0.0,0.0,83,0.00,,OVC028,0.00,VWS V14.01,2013-02-07 02:19:00,
2013-02-06 20:24:00,21.9,17.5,29.97,ESE,108,0.0,0.0,83,0.00,,OVC028,0.00,VWS V14.01,2013-02-07 02:24:00,
2013-02-06 20:29:00,21.9,17.5,29.97,ESE,108,0.0,0.0,83,0.00,,OVC028,0.00,VWS V14.01,2013-02-07 02:29:00,
2013-02-06 20:30:00,21.9,17.5,29.97,ESE,108,0.0,0.0,83,0.00,,,0.00,VWS V15.00,2013-02-07 02:30:00,
2013-02-06 20:34:00,21.9,17.5,29.97,ESE,108,0.0,0.0,83,0.00,,OVC028,0.00,VWS V14.01,2013-02-07 02:34:00,
2013-02-06 20:39:00,21.9,17.8,29.97,ESE,108,0.0,0.0,84,0.00,,OVC028,0.00,VWS V14.01,2013-02-07 02:39:00,
2013-02-06 20:44:00,21.9,17.8,29.97,ESE,108,0.0,0.0,84,0.00,,OVC028,0.00,VWS V14.01,2013-02-07 02:44:00,
2013-02-06 20:45:00,21.9,17.8,29.97,ESE,108,0.0,0.0,84,0.00,,,0.00,VWS V15.00,2013-02-07 02:45:00,
2013-02-06 20:49:00,21.9,17.8,29.97,ESE,108,0.0,0.0,84,0.00,,OVC028,0.00,VWS V14.01,2013-02-07 02:49:00,
2013-02-06 20:54:00,22.1,18.0,29.97,ESE,108,0.0,0.0,84,0.00,,OVC028,0.00,VWS V14.01,2013-02-07 02:54:00,
2013-02-06 20:59:00,22.1,18.0,29.97,ESE,108,0.0,0.0,84,0.00,,OVC028,0.00,VWS V14.01,2013-02-07 02:59:00,
2013-02-06 21:00:00,22.1,18.0,29.97,ESE,108,0.0,0.0,84,0.00,,,0.00,VWS V15.00,2013-02-07 03:00:00,
2013-02-06 21:05:00,22.1,18.0,29.97,ESE,108,0.0,0.0,84,0.00,,OVC028,0.00,VWS V14.01,2013-02-07 03:05:00,
2013-02-06 21:10:00,22.1,18.0,29.97,ESE,108,0.0,0.0,84,0.00,,OVC028,0.00,VWS V14.01,2013-02-07 03:10:00,
2013-02-06 21:15:00,22.2,18.1,29.98,ESE,108,0.0,0.0,84,0.00,,OVC028,0.00,VWS V14.01,2013-02-07 03:15:00,
2013-02-06 21:20:00,22.2,18.4,29.98,ESE,108,0.0,0.0,85,0.00,,OVC028,0.00,VWS V14.01,2013-02-07 03:20:00,
2013-02-06 21:25:00,22.2,18.4,29.98,ESE,108,0.0,0.0,85,0.00,,OVC028,0.00,VWS V14.01,2013-02-07 03:25:00,
2013-02-06 21:30:00,22.2,18.4,29.98,ESE,108,0.0,0.0,85,0.00,,OVC028,0.00,VWS V14.01,2013-02-07 03:30:00,
2013-02-06 21:35:00,22.4,18.6,29.98,ESE,108,0.0,0.0,85,0.00,,OVC024,0.00,VWS V14.01,2013-02-07 03:35:00,
2013-02-06 21:40:00,22.5,18.7,29.98,ESE,108,0.0,0.0,85,0.00,,OVC024,0.00,VWS V14.01,2013-02-07 03:40:00,
2013-02-06 21:45:00,22.5,18.4,29.98,ESE,108,0.0,0.0,84,0.00,,OVC024,0.00,VWS V14.01,2013-02-07 03:45:00,
2013-02-06 21:50:00,22.5,18.7,29.98,ESE,108,0.0,0.0,85,0.00,,OVC024,0.00,VWS V14.01,2013-02-07 03:50:00,
2013-02-06 21:55:00,22.7,18.6,29.98,ESE,108,0.0,0.0,84,0.00,,OVC024,0.00,VWS V14.01,2013-02-07 03:55:00,
2013-02-06 22:00:00,22.9,18.8,29.99,ESE,108,0.0,0.0,84,0.00,,OVC024,0.00,VWS V14.01,2013-02-07 04:00:00,
2013-02-06 22:05:00,22.9,18.8,29.99,ESE,108,0.0,0.0,84,0.00,,OVC022,0.00,VWS V14.01,2013-02-07 04:05:00,
2013-02-06 22:10:00,23.0,18.9,29.99,ESE,108,0.0,0.0,84,0.00,,OVC022,0.00,VWS V14.01,2013-02-07 04:10:00,
2013-02-06 22:15:00,22.9,18.8,29.99,ESE,106,2.0,3.0,84,0.00,,OVC022,0.00,VWS V14.01,2013-02-07 04:15:00,
2013-02-06 22:20:00,22.9,19.1,29.99,ESE,106,0.0,0.0,85,0.00,,OVC022,0.00,VWS V14.01,2013-02-07 04:20:00,
2013-02-06 22:25:00,23.0,19.2,29.99,ESE,105,2.0,3.0,85,0.00,,OVC022,0.00,VWS V14.01,2013-02-07 04:25:00,
2013-02-06 22:30:00,23.2,19.4,29.99,ESE,105,0.0,3.0,85,0.00,,OVC022,0.00,VWS V14.01,2013-02-07 04:30:00,
2013-02-06 22:35:00,23.2,19.4,29.99,ESE,105,1.0,3.0,85,0.00,,OVC020,0.00,VWS V14.01,2013-02-07 04:35:00,
2013-02-06 22:40:00,23.2,19.4,29.99,ESE,103,0.0,4.0,85,0.00,,OVC020,0.00,VWS V14.01,2013-02-07 04:40:00,
2013-02-06 22:45:00,23.2,19.4,29.99,East,99,0.0,4.0,85,0.00,,OVC020,0.00,VWS V14.01,2013-02-07 04:45:00,
2013-02-06 22:50:00,23.2,19.4,29.99,East,98,2.0,4.0,85,0.00,,OVC020,0.00,VWS V14.01,2013-02-07 04:50:00,
2013-02-06 22:55:00,23.3,19.5,29.99,East,97,0.0,4.0,85,0.00,,OVC020,0.00,VWS V14.01,2013-02-07 04:55:00,
2013-02-06 23:00:00,23.3,19.5,29.99,East,97,0.0,4.0,85,0.00,,OVC020,0.00,VWS V14.01,2013-02-07 05:00:00,
2013-02-06 23:04:00,23.2,19.4,29.99,East,97,2.0,3.0,85,0.00,,OVC020,0.00,VWS V14.01,2013-02-07 05:04:00,
2013-02-06 23:06:00,23.2,19.4,29.99,East,95,3.0,3.0,85,0.00,,OVC020,0.00,VWS V14.01,2013-02-07 05:06:00,
2013-02-06 23:12:00,23.0,19.2,29.99,ENE,78,5.0,5.0,85,0.00,,OVC020,0.00,VWS V14.01,2013-02-07 05:12:00,
2013-02-06 23:15:00,23.0,19.2,29.99,ENE,63,3.0,5.0,85,0.00,,,0.00,VWS V15.00,2013-02-07 05:15:00,
2013-02-06 23:17:00,23.0,19.2,29.99,NE,49,4.0,5.0,85,0.00,,OVC020,0.00,VWS V14.01,2013-02-07 05:17:00,
2013-02-06 23:22:00,22.9,19.1,29.99,NNE,23,5.0,8.0,85,0.00,,OVC020,0.00,VWS V14.01,2013-02-07 05:22:00,
2013-02-06 23:27:00,22.9,19.1,29.99,NNE,25,1.0,8.0,85,0.00,,OVC020,0.00,VWS V14.01,2013-02-07 05:27:00,
2013-02-06 23:30:00,22.9,19.1,30.00,NNE,25,2.0,8.0,85,0.00,,,0.00,VWS V15.00,2013-02-07 05:30:00,
2013-02-06 23:32:00,22.9,19.1,30.00,NNE,25,2.0,4.0,85,0.00,,OVC018,0.00,VWS V14.01,2013-02-07 05:32:00,
2013-02-06 23:37:00,22.7,18.6,30.00,NNE,25,5.0,6.0,84,0.00,,OVC018,0.00,VWS V14.01,2013-02-07 05:37:00,
2013-02-06 23:42:00,22.7,18.9,30.00,NNE,25,4.0,6.0,85,0.00,,OVC018,0.00,VWS V14.01,2013-02-07 05:42:00,
2013-02-06 23:45:00,22.7,18.9,30.00,NNE,26,4.0,6.0,85,0.00,,,0.00,VWS V15.00,2013-02-07 05:45:00,
2013-02-06 23:47:00,22.7,18.9,30.00,NNE,26,5.0,5.0,85,0.00,,OVC018,0.00,VWS V14.01,2013-02-07 05:47:00,
2013-02-06 23:52:00,22.7,18.9,30.00,NNE,27,2.0,6.0,85,0.00,,OVC018,0.00,VWS V14.01,2013-02-07 05:52:00,
2013-02-06 23:57:00,22.7,18.9,30.00,NNE,26,3.0,6.0,85,0.00,,OVC018,0.00,VWS V14.01,2013-02-07 05:57:00,